ICEYE-X20 (52759 NORAD) Tracking and Keplerian Element Data

This shows tracking and keplerian element data for the satellite.

Feedback or suggestion? Click here.




ElementValue
Catalog52759
NameICEYE-X20
Epoch Orbit713
Epoch Day192.93146766
Epoch Year2022
RAAN307.2895
Inclination97.5191
Eccentricity0.0012945
Argument of Perigee79.1355
Mean Anonmoly41.8846
Mean Motion15.13087751
Decay Rate5.891E-05
L11 52759U 22057AD 22192.93146766 .00005891 00000+0 33587-3 0 9993
L22 52759 97.5191 307.2895 0012945 79.1355 41.8846 15.13087751 7137

Live tracking and technical data element details for ICEYE-X20 (NORAD 52759). ICEYE-X20 can be tracked NOW for your location showing map with azimuth and elevation plus other details from your city location.

Track the satellite on the map from your city or location and see movement details for azimuth, elevation, latitude, longitude, range, height, and movement on the map or in text.







IsCatalogInMostPopularTable: catalog: 52759, numindb: 6
Update: records affected: 1



GetName: 52759 ICEYE-X20

Hit Count: updated at: Sat, 13 Aug 2022 23:52:11 GMT